Regional Weather Roundup
Issued by NWS

Home | Current Version | Previous Version | Text Only | Print | Product List | Glossary On
Versions: 1 2 3 4 5 6 7 8 9 10 11 12 13 14 15 16 17 18 19 20 21 22 23 24 25 26 27 28 29 30 31 32 33 34 35 36 37 38 39 40 41 42 43 44 45 46 47 48 49 50
000
ASUS44 KFWD 040115
RWRTX
NORTH TEXAS HOURLY WEATHER ROUNDUP
NATIONAL WEATHER SERVICE FORT WORTH TX
800 PM CDT THU SEP 03 2015

NOTE: "FAIR" INDICATES FEW OR NO CLOUDS BELOW 12,000 FEET WITH NO
SIGNIFICANT WEATHER AND/OR OBSTRUCTIONS TO VISIBILITY.

TXZ118-119-040200-
DALLAS/FORT WORTH METROPLEX

CITY           SKY/WX    TMP DP  RH WIND       PRES   REMARKS
DFW AIRPORT    PTCLDY    88  64  44 SE10      29.85S
DALLAS LOVE    MOCLDY    89  64  43 SE9       29.85S HX  90
FTW MEACHAM    CLEAR     90  62  39 SE9       29.84S HX  90
DAL-EXECUTIVE  CLEAR     88  64  44 E7        29.85F
FTW-ALLIANCE   PTCLDY    88  63  43 SE9       29.85S
FTW-NAS-JRB    CLEAR     90  63  40 SE10      29.85S HX  91
ARLINGTON      CLEAR     89  64  43 E7        29.85S HX  90
ADDISON        PTCLDY    88  64  45 SE9       29.88S
MESQUITE       CLEAR     86  64  48 SE3       29.86S
LANCASTER      CLEAR     88  63  42 SE6       29.87R
$$

TXZ091>094-102>105-117-120-121-131>134-040200-
NORTH CENTRAL TEXAS

CITY           SKY/WX    TMP DP  RH WIND       PRES   REMARKS
SHRMAN/DENISON CLEAR     88  65  45 SE8       29.88S
GAINESVILLE    CLEAR     86  62  44 SE7       29.89R
BOWIE          CLEAR     84  61  46 SE3       29.87S
BRIDGEPORT     CLEAR     85  64  48 CALM      29.88R
DECATUR        CLEAR     86  58  39 E7        29.88R
DENTON         CLEAR     88  65  46 SE9       29.85S HX  90
MCKINNEY       CLEAR     87  67  51 SE7       29.86F HX  90
GREENVILLE     CLEAR     84  64  51 CALM      29.87S
ROCKWALL       CLEAR     86  67  52 E5        29.86S
TERRELL        CLEAR     87  68  52 SE5       29.86F HX  90
WAXAHACHIE     CLEAR     86  64  48 CALM      29.87S
CLEBURNE       CLEAR     88  68  51 E8        29.88S HX  91
GRANBURY       CLEAR     89  65  45 E7        29.86S HX  90
$$

TXZ083>090-098>101-113>116-127>130-139>142-154-155-040200-
WESTERN NORTH TEXAS

CITY           SKY/WX    TMP DP  RH WIND       PRES   REMARKS
WICHITA FALLS  CLEAR     87  62  43 SE10      29.85R
WF-KICKAPOO    CLEAR     90  61  38 SE7       29.87R
VERNON         CLEAR     92  48  21 SE10      29.85R
ABILENE        CLEAR     88  61  40 SE10      29.88S
ABILENE-DYESS  CLEAR     89  62  39 SE9       29.86S
BRECKENRIDGE   CLEAR     89  59  36 SE6       29.86R
GRAHAM         CLEAR     87  62  42 SE5       29.84S
MINERAL WELLS  CLEAR     85  64  49 SE6       29.85R
STEPHENVILLE   CLEAR     85  64  49 SE3       29.90S
COMANCHE       CLEAR     86  63  45 SE8       29.87F
BROWNWOOD      CLEAR     82  63  51 E8        29.86S
COLEMAN        CLEAR     88  62  40 E9        29.87S
BRADY          CLEAR     90  63  40 E7        29.88R HX  90
$$

TXZ143>147-156>162-174-175-040200-
CENTRAL TEXAS

CITY           SKY/WX    TMP DP  RH WIND       PRES   REMARKS
WACO           CLEAR     89  65  44 SE9       29.84R HX  91
WACO-TSTC      CLEAR     86  64  48 CALM      29.84
WACO-MCGREGOR  CLEAR     89  67  47 SE9       29.85R HX  92
HILLSBORO      CLEAR     86  64  48 NE6       29.86R
CORSICANA      CLEAR     87  67  51 E5        29.86S HX  90
MEXIA          CLEAR     86  67  52 SE15      29.84S
HEARNE         CLOUDY    87  68  52 SE6       29.85S HX  90
CAMERON        CLEAR     87  69  54 S7        29.84S HX  91
TEMPLE         CLEAR     88  64  45 SE7       29.85S
KILLEEN        CLEAR     87  65  48 SE10      29.85R
KILLEEN-SKYLRK CLEAR     88  64  45 SE9       29.85R
FORT HOOD      CLEAR     87  66  48 SE10      29.84R
GATESVILLE     CLEAR     88  64  45 CALM      29.88R
HAMILTON       CLEAR     87  61  41 SE8       29.88S
$$

TXZ095>097-106>112-122>126-135>138-148>153-164>167-040200-
EAST TEXAS

CITY           SKY/WX    TMP DP  RH WIND       PRES   REMARKS
PARIS          CLEAR     84  59  42 S8        29.87F
SULPHUR SPRNGS CLEAR     86  65  49 SE5       29.89S
MOUNT PLEASANT CLEAR     85  65  50 SE3       29.88S
GILMER         CLEAR     84  68  57 CALM      29.86F
MINEOLA        CLEAR     84  70  61 CALM      29.87F
TYLER          CLEAR     87  68  52 E6        29.87S HX  90
LONGVIEW       CLEAR     83  71  67 CALM      29.86S
MARSHALL       CLEAR     83  74  75 CALM      29.89S
ATHENS         MOCLDY    84  70  61 CALM      29.84F
PALESTINE      CLEAR     85  70  60 E3        29.87S HX  90
JACKSONVILLE   CLOUDY    86  67  54 S5        29.89S
HENDERSON      CLEAR     82  71  68 MISG      29.88R
CENTER         FAIR      86  70  58 E8        29.86S HX  90
NACOGDOCHES    CLEAR     84  70  61 S5        29.86S
LUFKIN         CLEAR     84  70  62 S6        29.87R
$$

SUPPLEMENTAL OBSERVATIONS (CENTRAL)

CITY           SKY/WX    TMP DP  RH WIND       PRES   REMARKS
LAKE TEXOMA      N/A    N/A N/A N/A SE6         N/A
CADDO GRASSLND   N/A     84  61  45 SE2         N/A
PAT MAYSE LAKE   N/A    N/A N/A N/A E5          N/A
GREENVILLE       N/A     84  64  51 SE2         N/A
CEDAR HILL       N/A     84  63  48 CALM        N/A
ATHENS           N/A     84  68  58 E2          N/A
MCGREGOR         N/A     88  64  45 SE5         N/A
TEMPLE           N/A     88  66  48 SE7         N/A  HX  90
$$

SUPPLEMENTAL OBSERVATIONS (WEST)

CITY           SKY/WX    TMP DP  RH WIND       PRES   REMARKS
MILLERS CREEK    N/A     88  59  37 SE8         N/A
POSSUM KINGDOM   N/A     88  59  37 SE7         N/A
LBJ GRASSLAND    N/A    N/A N/A N/A E5          N/A
GRANBURY         N/A     88  64  45 SE7         N/A
HAMBY            N/A     88  59  37 SE8         N/A
IVIE RESERVOIR   N/A     90  59  35 E8          N/A
COLORADO BEND    N/A     88  63  42 S8          N/A
$$

SUPPLEMENTAL OBSERVATIONS (EAST)

CITY           SKY/WX    TMP DP  RH WIND       PRES   REMARKS
CLARKSVILLE      N/A     84  59  42 SE2         N/A
TEXARKANA        N/A     79  72  78 CALM        N/A
LINDEN           N/A     84  66  54 CALM        N/A
CADDO LAKE       N/A     79  72  78 CALM        N/A
GILMER           N/A     84  68  58 CALM        N/A
HENDERSON        N/A     82  68  61 E5          N/A
N SABINE NF      N/A     84  68  58 MISG        N/A
S SABINE NF      N/A     81  73  78 S1          N/A
$$

SUPPLEMENTAL OBSERVATIONS ARE A COLLECTION OF AUTOMATED INSTRUMENTS
THAT ARE MAINTAINED BY A VARIETY OF FEDERAL AND STATE AGENCIES.
CERTAIN ELEMENTS...SUCH AS HUMIDITY VALUES AND SUSTAINED WIND
SPEEDS...MAY BE APPROXIMATED.



USA.gov is the U.S. government's official web portal to all federal, state and local government web resources and services.